Location: El Abasto
(10.3790°N, 67.5897°W)
Time: 17:35:36
(UTC+00:00)

SL-8 R/B - Pass Details

Date: 19 May 2024
Orbit: 652 x 662 km, 48.4° (Epoch: 12 June)

Event Time Altitude Azimuth Distance (km) Brightness Sun altitude
Rises 23:09:46 0° 211° (SSW) 2,957 7.2 -6.3°
Reaches altitude 10° 23:12:08 10° 206° (SSW) 2,046 6.3 -6.9°
Maximum altitude 23:16:45 55° 129° (SE) 776 3.7 -7.9°
Drops below altitude 10° 23:21:22 10° 51° (NE) 2,045 5.9 -9.0°
Sets 23:23:44 0° 47° (NE) 2,956 6.8 -9.5°
